Regional Weather Roundup
Issued by NWS

Home | Current Version | Previous Version | Text Only | Print | Product List | Glossary On
Versions: 1 2 3 4 5 6 7 8 9 10 11 12 13 14 15 16 17 18 19 20 21 22 23 24 25 26 27 28 29 30 31 32 33 34 35 36 37 38 39 40 41 42 43 44 45 46 47 48 49 50
000
ASCA44 KEWX 220620
RWRMX

LATIN AMERICA AND CARIBBEAN REGIONAL WEATHER ROUNDUP
NATIONAL WEATHER SERVICE AUSTIN/SAN ANTONIO TX
1200 AM CST THU FEB 22 2018

NOTE: "FAIR" INDICATED FEW OR NO CLOUDS BELOW 12,000 FEET WITH NO
SIGNIFICANT WEATHER AND/OR OBSTRUCTIONS TO VISIBILITY.

BAJA CALIFORNIA

CITY           SKY/WX    TMP DP  RH WIND       PRES   REMARKS
LA PAZ         CLEAR     57  46  67 CALM      30.15R
MEXICALI       CLEAR     50  30  46 W8        30.14R WCI  47
S.J. DEL CABO  MOCLDY    63  52  67 CALM      30.13R
TIJUANA        PTCLDY    48  37  66 MISG      30.21R

NORTHWESTERN MEXICO

CITY           SKY/WX    TMP DP  RH WIND       PRES   REMARKS
HERMOSILLO     CLEAR     52  36  54 CALM      30.13R

NORTHEASTERN MEXICO

CITY           SKY/WX    TMP DP  RH WIND       PRES   REMARKS
MONCLOVA         N/A    N/A N/A N/A MISG        N/A
MONTERREY      CLOUDY    57  48  72 NW7       30.13R
REYNOSA          N/A    N/A N/A N/A MISG        N/A
SALTILLO       CLEAR     54  41  62 N9        30.23R
CD. VICTORIA     N/A    N/A N/A N/A MISG        N/A

WESTERN MEXICO

CITY           SKY/WX    TMP DP  RH WIND       PRES   REMARKS
AGUASCALIENTES CLEAR     57  34  41 S5        30.31S
COLIMA           N/A    N/A N/A N/A MISG        N/A
DEL BAJIO      CLEAR     55  37  50 CALM      30.34S
GUADALAJARA    PTCLDY    59  43  55 CALM      30.26R
MAZATLAN       CLEAR     64  55  72 N5        30.07R
P. VALLARTA    CLEAR     70  70 100 CALM      30.04R
URUAPAN          N/A    N/A N/A N/A MISG        N/A
ZACATECAS      CLEAR     46  34  61 S5        30.34  WCI  44

CENTRAL MEXICO

CITY           SKY/WX    TMP DP  RH WIND       PRES   REMARKS
CUERNAVACA       N/A    N/A N/A N/A MISG        N/A
MEXICO CITY    PTCLDY    61  45  55 NW8       30.41F
MORELIA        CLEAR     59  41  51 CALM      30.30R
POZA RICA        N/A    N/A N/A N/A MISG        N/A
S. LUIS POTOSI PTCLDY    61  48  63 CALM      30.30R
TOLUCA         CLEAR     50  36  57 CALM      30.46S

SOUTHERN MEXICO

CITY           SKY/WX    TMP DP  RH WIND       PRES   REMARKS
ACAPULCO       CLEAR     75  70  83 E2        30.00S
B. DE HUATULCO   N/A    N/A N/A N/A MISG        N/A
P. ESCONDIDO     N/A    N/A N/A N/A MISG        N/A
VERACRUZ         N/A    N/A N/A N/A MISG        N/A

YUCATAN PENINSULA

CITY           SKY/WX    TMP DP  RH WIND       PRES   REMARKS
CAMPECHE         N/A    N/A N/A N/A MISG        N/A
CANCUN         PTCLDY    77  68  73 E12       30.17
CHETUMAL         N/A    N/A N/A N/A MISG        N/A
CD. DEL CARMEN   N/A    N/A N/A N/A MISG        N/A
COZUMEL        PTCLDY    77  70  78 E8        30.14F
MERIDA         CLEAR     75  68  78 E8        30.14S
MINATITLAN       N/A    N/A N/A N/A MISG        N/A
TAPACHULA      PTCLDY    77  70  78 CALM      29.97S
VILLAHERMOSA   CLEAR     75  68  78 NE17      30.02

CENTRAL AMERICA

CITY           SKY/WX    TMP DP  RH WIND       PRES   REMARKS
MANAGUA        PTCLDY    73  72  94 E9        29.97S

CARIBBEAN

CITY           SKY/WX    TMP DP  RH WIND       PRES   REMARKS
CURACAO        PTCLDY    77  70  78 E15       30.03S
KINGSTON       PTCLDY    77  68  73 NW5       30.09F
NASSAU         PTCLDY    79  68  69 NE9       30.33S
SAN JUAN       MOCLDY    75  64  69 E17       30.19F
SANTO DOMINGO  MOCLDY    70  68  94 NE7       30.18S
ST. CROIX      MOCLDY    75  66  73 NE15      30.15F
ST. MAARTEN    PTCLDY    75  64  69 E16       30.15F
ST. THOMAS     PTCLDY    73  68  83 NE15G23   30.16F

$$





USA.gov is the U.S. government's official web portal to all federal, state and local government web resources and services.